Flag for Canada Weather past 2 weeks in Fort Nelson, British Columbia, Canada

Now
57 °F

Passing clouds.


Feels Like: 57 °F
Forecast: 52 / 73 °F
Wind: 5 mph from Southwest

Location: Fort Nelson

Current Time: Jul 29, 2015 at 11:10:55 PM

Latest Report: Jul 29, 2015 at 10:00 PM


Visibility: 20 mi

Pressure: 29.98 "Hg

Humidity: 72%

Dew point: 48 °F

Location of Fort NelsonLocation

Historic Weather in Fort Nelson — Graph

°F

Fort Nelson temperature yesterday

Maximum temperature yesterday: 72 °F (at 5:00 PM)
Minimum temperature yesterday: 54 °F (at 3:00 AM)
Average temperature yesterday: 62 °F

Past Weeks' High & Low Weather Summary

 TemperatureHumidityPressure
High81 °F (Jul 18, 3:00 PM)100% (Jul 20, 9:00 PM)30.05 "Hg (Jul 20, 9:00 PM)
Low46 °F (Jul 23, 2:00 AM)22% (Jul 17, 1:00 PM)29.62 "Hg (Jul 15, 3:00 PM)
Average62 °F70%29.81 "Hg
* Reported Jul 14 10:00 PM — Jul 29 10:00 PM, Fort Nelson, Weather by CustomWeather, © 2015

Note: Actual official high and low records may vary slightly from our data, if they occured in-between our weather recording intervals... More about our weather records

Advertising

Fort Nelson weather history for previous 24 hours

 ConditionsComfort  
Time TempWeatherWind HumidityBarometerVisibility
10:00 PM
Wed, Jul 29
57 °FPassing clouds.5 mph72%29.98 "Hg20 mi
9:00 PM63 °FScattered clouds.2 mph68%29.97 "Hg20 mi
8:00 PM70 °FScattered clouds.5 mph40%29.96 "Hg20 mi
7:00 PM72 °FScattered clouds.7 mph38%29.94 "Hg20 mi
6:00 PM72 °FScattered clouds.6 mph33%29.94 "Hg20 mi
5:00 PM72 °FScattered clouds.7 mph36%29.95 "Hg20 mi
4:00 PM70 °FScattered clouds.14 mph35%29.95 "Hg30 mi
3:00 PM72 °FScattered clouds.15 mph36%29.94 "Hg30 mi
2:00 PM70 °FScattered clouds.14 mph35%29.95 "Hg30 mi
1:00 PM68 °FBroken clouds.13 mph35%29.95 "Hg30 mi
12:00 PM66 °FPartly sunny.3 mph46%29.95 "Hg30 mi
11:00 AM64 °FPartly sunny.6 mph56%29.94 "Hg30 mi
10:00 AM61 °FBroken clouds.8 mph59%29.93 "Hg30 mi
9:00 AM55 °FPartly sunny.7 mph88%29.93 "Hg30 mi
8:00 AM55 °FBroken clouds.2 mph88%29.92 "Hg30 mi
7:00 AM54 °FPartly sunny.5 mph94%29.91 "Hg30 mi
6:00 AM52 °FPartly sunny.5 mph100%29.90 "Hg20 mi
5:00 AM52 °FPassing clouds.6 mph100%29.89 "Hg15 mi
4:00 AM52 °FPassing clouds.6 mph100%29.88 "Hg15 mi
3:00 AM54 °FPassing clouds.3 mph94%29.88 "Hg15 mi
2:00 AM52 °FPassing clouds.No wind100%29.88 "Hg15 mi
1:00 AM52 °FPartly cloudy.2 mph94%29.88 "Hg15 mi
12:00 AM54 °FPassing clouds.2 mph94%29.86 "Hg15 mi
11:00 PM
Tue, Jul 28
59 °FLight rain. Passing clouds.10 mph72%29.86 "Hg10 mi
Weather by CustomWeather, © 2015

See weather overviewHow to use our weather pages